sat.trackr.live / text

‹ back to catalog

S-NET D

NORAD 43186 · 2018-014G

PAYLOAD ACTIVE UNKNOWN

§ Identity

Operator
Country
GER
Launch date
2018-02-01
Launch site
VOSTO
Launch vehicle
Mass (kg)
RCS (m²)

External: N2YO · Heavens-Above · Gunter

§ Orbital elements

Epoch: 2026-05-24T17:00:37.264896Z

Period
94.96 min
Inclination
97.5379°
Eccentricity
0.0010117
Mean motion
15.16410934 rev/d
Perigee alt
509.7 km
Apogee alt
523.7 km
Semi-major
6,894.8 km
B*
2.0128e-4
RAAN
49.6478°
Arg perigee
98.1552°
Mean anomaly
262.0828°
Rev number
45,520

§ Raw data

S-NET D1 43186U 18014G   26144.70876464  .00003848  00000+0  20128-3 0  99932 43186  97.5379  49.6478 0010117  98.1552 262.0828 15.16410934455200

JSON: /api/v1/satellites/43186 · /tle

For live sub-satellite position, see the globe view (requires WebGL).

§ Visibility from observer

Set your observer location to see the next 7 days of passes ≥ 10°. The values pass through the URL so the page stays shareable.

No JS? Fill the form by hand. The geolocation button needs JavaScript.

§ Radio — SatNOGS DB

ModeDescriptionDownlinkUplink
AFSK TUBiX10 AFSK 1k2 TLM 435.950 MHz
FM S-Band Downlink 2.263 GHz

2 transmitters · refreshed weekly from db.satnogs.org